Tracking 18980 objects as of 20-Feb-2018
HD Live streaming from Space Station
objects crossing your sky now

CE-SAT 1

Track CE-SAT 1 now!
10-day predictions


NORAD ID: 42769
Int'l Code: 2017-036E
Perigee: 501.1 km
Apogee: 524.9 km
Inclination: 97.4 °
Period: 94.7 minutes
Semi major axis: 6883 km
RCS: Unknown
Launch date: June 23, 2017
Source: Japan (JPN)
Launch site: SRIHARIKOTA (SRI)
aabbcc
Your satellite tracking list
Your tracking list is empty




NASA's NSSDC Master Catalog

Two Line Element Set (TLE):
1 42769U 17036E   18051.23394865  .00000645  00000-0  33005-4 0  9990
2 42769  97.4166 112.4127 0017284 112.9665 247.3396 15.20008681 36692
Source of the keplerian elements: AFSPC